Hourly Data Report for September 09, 2017

All times are specified in Local Standard Time (LST). Add 1 hour to adjust for Daylight Saving Time where and when it is observed.

SATURNA ISLAND CS
BRITISH COLUMBIA

48°47'02.067" N
123°02'41.082" W
24.40 m
1017101
71473
WEZ

Download Data

Hourly Data (September 2017)
Hourly Data Report for September 9, 2017
Temp Definition
°C
Dew Point Temp Definition
°C
Rel Hum Definition
%
Wind Dir Definition
10's deg

Wind Spd Definition
km/h
Visibility Definition
km
Stn Press Definition
kPa
Hmdx Definition


Wind Chill Definition


Weather Definition


TIME
00:00 14.6 8.9 69 23 14   101.09     LegendNANA
01:00 14.2 9.6 74 23 13   101.08     LegendNANA
02:00 13.9 9.2 73 22 13   101.09     LegendNANA
03:00 13.9 9.0 73 22 13   101.10     LegendNANA
04:00 13.7 8.6 71 22 12   101.16     LegendNANA
05:00 13.5 8.5 72 19 12   101.19     LegendNANA
06:00 13.2 9.4 78 21 14   101.27     LegendNANA
07:00 13.2 9.8 80 18 19   101.32     LegendNANA
08:00 13.1 10.7 86 18 16   101.32     LegendNANA
09:00 13.0 10.9 87 21 10   101.35     LegendNANA
10:00 13.5 11.8 89 21 9   101.40     LegendNANA
11:00 13.7 12.0 89 23 3   101.41     LegendNANA
12:00 13.7 11.9 89 9 3   101.41     LegendNANA
13:00 14.3 12.6 89 4 8   101.42     LegendNANA
14:00 13.9 12.3 90 5 6   101.47     LegendNANA
15:00 13.8 12.4 91 16 10   101.49     LegendNANA
16:00 14.1 12.4 89 23 9   101.55     LegendNANA
17:00 13.8 12.3 91 23 12   101.58     LegendNANA
18:00 13.5 12.2 91 22 24   101.59     LegendNANA
19:00 12.9 11.7 92 21 17   101.64     LegendNANA
20:00 13.1 11.9 93 21 22   101.71     LegendNANA
21:00 12.9 11.7 93 22 5   101.78     LegendNANA
22:00 12.6 11.5 93 21 12   101.82     LegendNANA
23:00 12.5 11.4 93 21 8   101.85     LegendNANA

Notes on Data Quality.

Legend

  • E = Estimated
  • M = Missing
  • NA = Not Available
  • ‡ = Partner data that is not subject to review by the National Climate Archives
Date modified: